This is the latest recevied weather packets stored in our database for station/object IU1OLT-6. If no packets are shown the sender has not sent any weather packets the latest 10 day(s).
| Time | Temp. | Humidity | Pressure | Rain* | Wind** | Luminosity | Snow |
|---|---|---|---|---|---|---|---|
| 1788092102 | 18.33° C | 74% | 1013 hPa | 0 mm | - | - | - |
| 1788091142 | 18.89° C | 69% | 1012.8 hPa | 0 mm | - | - | - |
| 1788090230 | 18.33° C | 68% | 1012.8 hPa | 0 mm | - | - | - |
| 1788089318 | 18.33° C | 69% | 1012.9 hPa | 0 mm | - | - | - |
| 1788088358 | 18.89° C | 69% | 1012.8 hPa | 0 mm | - | - | - |
| 1788087436 | 18.89° C | 67% | 1012.8 hPa | 0 mm | - | - | - |
| 1788087398 | 18.89° C | 67% | 1012.8 hPa | 0 mm | - | - | - |
| 1788086438 | 18.89° C | 66% | 1012.8 hPa | 0 mm | - | - | - |
| 1788085479 | 18.33° C | 68% | 1012.8 hPa | 0 mm | - | - | - |
| 1788084566 | 18.33° C | 64% | 1012.9 hPa | 0 mm | - | - | - |
| 1788083655 | 17.78° C | 61% | 1013 hPa | 0 mm | - | - | - |
| 1788082695 | 17.22° C | 61% | 1013 hPa | 0 mm | - | - | - |
| 1788081735 | 17.22° C | 65% | 1012.9 hPa | 0 mm | - | - | - |
| 1788080775 | 16.67° C | 70% | 1013 hPa | 0 mm | - | - | - |
| 1788079815 | 16.67° C | 68% | 1012.9 hPa | 0 mm | - | - | - |
| 1788078943 | 16.11° C | 69% | 1012.9 hPa | 0 mm | - | - | - |
| 1788078855 | 16.11° C | 69% | 1012.9 hPa | 0 mm | - | - | - |
| 1788077895 | 16.11° C | 67% | 1012.7 hPa | 0 mm | - | - | - |
| 1788076935 | 16.11° C | 68% | 1012.6 hPa | 0 mm | - | - | - |
| 1788075975 | 16.67° C | 61% | 1012.5 hPa | 0 mm | - | - | - |
| 1788075015 | 16.11° C | 63% | 1012.2 hPa | 0 mm | - | - | - |
| 1788074055 | 16.11° C | 64% | 1012.1 hPa | 0 mm | - | - | - |
| 1788073095 | 15.56° C | 69% | 1012 hPa | 0 mm | - | - | - |
| 1788072135 | 15° C | 72% | 1011.8 hPa | 0 mm | - | - | - |
| 1788071175 | 14.44° C | 75% | 1011.9 hPa | 0 mm | - | - | - |
* Rain latest hour (hover to see other rain measurements)
** Current wind speed in m/s (hover to see current wind gust speed)